Printer-friendly version

IAU Minor Planet Center

Minor Planet Center

MPEC 2005-N27 : 2005 NQ1

The following Minor Planet Electronic Circular may be linked-to from your own Web pages, but must not otherwise be redistributed electronically.


Read MPEC 2005-N26 Read MPEC 2005-N28


M.P.E.C. 2005-N27                                Issued 2005 July 5, 14:41 UT

     The Minor Planet Electronic Circulars contain information on unusual
         minor planets and routine data on comets.  They are published
   on behalf of Commission 20 of the International Astronomical Union by the
          Minor Planet Center, Smithsonian Astrophysical Observatory,
                          Cambridge, MA 02138, U.S.A.

                  Supported in part by the Brinson Foundation
             Prepared using the Tamkin Foundation Computer Network

                              MPC@CFA.HARVARD.EDU
          URL http://cfa-www.harvard.edu/iau/mpc.html  ISSN 1523-6714

                                   2005 NQ1

Observations:
     K05N01Q* C2005 07 04.37251 20 42 13.28 -16 09 43.5          20.2 V EN027G96
     K05N01Q  C2005 07 04.38045 20 42 16.63 -16 10 25.7          20.1 V EN027G96
     K05N01Q  C2005 07 04.38841 20 42 20.01 -16 11 08.4          19.9 V EN027G96
     K05N01Q  C2005 07 04.39638 20 42 23.40 -16 11 51.2          20.1 V EN027G96
     K05N01Q  C2005 07 04.40271 20 42 26.06 -16 12 24.6          20.0 V EN027G96
     K05N01Q  C2005 07 04.40336 20 42 26.31 -16 12 27.7          20.2 V EN027G96
     K05N01Q  C2005 07 04.40402 20 42 26.60 -16 12 31.2          20.2 V EN027G96
     K05N01Q  C2005 07 04.40466 20 42 26.89 -16 12 34.7          20.2 V EN027G96
     K05N01Q 1C2005 07 04.72694 20 44 52.45 -16 39 44.8          19.9 R EN027413
     K05N01Q 1C2005 07 04.72883 20 44 53.28 -16 39 55.0          20.1 R EN027413
     K05N01Q 1C2005 07 04.73072 20 44 54.08 -16 40 04.9          20.1 R EN027413
     K05N01Q 3C2005 07 05.42186 20 50 12.48 -17 41 51.8          20.0 R EN027F65
     K05N01Q 3C2005 07 05.42317 20 50 13.00 -17 41 59.0          19.9 R EN027F65
     K05N01Q 3C2005 07 05.42464 20 50 13.64 -17 42 06.2          20.7 R EN027F65

Observer details:
413 Siding Spring.  Observer R. H. McNaught.  1.0-m f/8 reflector + CCD.
F65 Haleakala-Faulkes Telescope North.  Observers E. S. Jennings,
    G. W. Edmondson, S. M. Fendius, S. D. W. Wassermann-Fry, A. D. Taylor.
    2.0-m Ritchey-Chretien + CCD.
G96 Mt. Lemmon Survey.  Observer S. Larson/R. Hill.  Measurers E. C. Beshore,
    C. M. Casey, E. J. Christensen, G. J. Garradd, A. D. Grauer, R. E. Hill,
    S. M. Larson, R. H. McNaught.  1.5-m reflector + CCD.

Orbital elements:
2005 NQ1
Epoch 2005 June 19.0 TT = JDT 2453540.5                 MPC
M 356.56701              (2000.0)            P               Q
n   0.32440281     Peri.  173.99392     +0.17173985     +0.97158034
a   2.0977142      Node   105.81056     -0.91075102     +0.21962264
e   0.4721462      Incl.    9.74755     -0.37555027     -0.08830370
P   3.04           H   23.9           G   0.15
From 14 observations 2005 July 4-5.

Ephemeris:
2005 NQ1                 a,e,i = 2.10, 0.47, 10                  q = 1.1073
Date    TT    R. A. (2000) Decl.     Delta      r     Elong.  Phase     V
2005 06 29    20 00.84   -07 51.4    0.100    1.107   153.7    24.0    20.2
2005 07 09    21 16.26   -22 32.8    0.107    1.112   151.6    25.8    20.5
2005 07 19    22 16.19   -32 14.4    0.132    1.128   146.3    30.0    21.1
2005 07 29    22 53.54   -37 13.8    0.167    1.155   144.3    30.9    21.6
2005 08 08    23 12.22   -39 31.7    0.208    1.190   144.9    29.3    22.2
2005 08 18    23 18.78   -40 10.0    0.255    1.234   146.6    26.8    22.6

Timothy B. Spahr             (C) Copyright 2005 MPC           M.P.E.C. 2005-N27

Read MPEC 2005-N26 Read MPEC 2005-N28


Our Web policy. Index to the CBAT/MPC/ICQ pages.


Valid HTML 4.01!